Temp
79 79 78 78 78 78 79 78 78 78 77 78 78 78 79 80 80 80 80 80 80 80 79 79 79 78 79 78 77 77 76 76 76 75 74 73 72 71 72 71 71 71
79 79 79 79 78 78 78 79 79 79 77 77 79 79 79 79 80 80 80 80 80 80 80 80 79 78 78 78 77 77 76 76 75 77 75 74 73 72 73 72 72 71
79 79 79 78 79 79 79 79 79 79 79 79 79 79 79 80 80 80 80 80 80 80 79 80 79 79 79 78 77 77 77 75 76 76 75 75 74 73 73 72 71 71
79 80 80 80 80 79 80 79 79 79 80 78 78 80 81 81 80 80 79 81 79 80 80 80 80 80 79 79 78 77 77 76 77 76 75 75 74 74 74 73 72 72
79 79 80 80 80 80 80 79 79 80 80 80 80 79 79 79 80 80 79 79 79 80 79 79 80 80 79 79 78 77 77 77 76 76 75 74 74 74 75 74 72 72
79 80 80 80 80 80 80 80 80 80 80 80 80 80 80 80 80 80 80 80 80 80 80 80 80 80 80 79 78 78 77 76 77 76 75 75 75 75 76 74 73 73
79 79 79 80 80 80 80 80 80 80 81 82 81 79 80 80 80 80 80 80 80 80 80 80 79 79 79 79 78 78 77 77 77 76 75 75 75 74 75 74 74 73
80 80 80 80 80 80 80 80 80 80 81 81 81 81 80 81 80 81 81 81 81 80 80 80 80 79 80 79 78 78 78 78 77 76 75 75 75 74 74 75 74 73
80 80 80 80 80 80 80 81 81 81 81 81 81 82 81 81 81 81 81 81 80 80 79 80 80 80 80 79 79 78 78 78 78 77 76 76 75 75 75 75 74 74
79 80 80 80 80 80 80 81 82 82 81 81 82 82 82 82 82 82 81 80 80 80 79 80 80 80 80 80 79 79 78 78 78 77 77 77 77 76 76 75 75 74
79 80 80 80 80 81 81 82 82 83 82 81 82 82 82 82 81 81 81 80 80 80 80 80 80 80 80 80 80 80 79 79 78 78 78 78 78 77 77 76 76 75
79 79 79 80 80 81 81 82 82 82 82 82 82 82 82 83 82 81 81 81 81 81 81 80 80 80 80 80 80 80 80 80 79 79 78 78 78 78 78 77 77 76
79 79 80 80 80 81 82 82 82 83 83 83 83 83 83 83 83 82 81 81 81 81 81 81 80 81 80 80 80 80 80 79 79 79 79 78 78 78 79 78 78 77
80 80 80 80 81 81 81 82 82 82 82 83 83 83 83 83 83 82 82 82 82 81 82 82 81 80 80 80 80 80 80 79 79 79 79 79 79 79 79 79 79 79
80 80 81 80 81 80 80 81 82 82 82 82 82 83 84 84 84 84 82 81 82 81 81 82 81 80 81 81 80 80 80 80 79 79 79 79 79 79 79 79 80 80
80 80 80 80 80 80 80 81 81 82 82 82 82 83 83 83 83 83 83 82 81 81 81 81 81 81 78 72 73 81 80 81 80 79 79 79 78 78 79 79 79 80
80 80 80 79 80 80 80 80 81 81 81 81 81 82 82 82 82 83 83 83 82 82 81 81 81 81 72 68 68 70 79 80 80 79 79 79 79 78 78 79 79 80
80 80 79 79 80 80 80 80 81 81 81 81 81 81 81 83 82 82 82 83 83 83 82 81 81 75 69 67 67 67 69 80 81 80 79 79 79 79 79 79 79 79
81 80 80 80 80 80 80 80 80 80 80 80 81 82 82 81 81 82 82 82 83 82 82 82 82 73 68 66 65 66 65 72 81 81 80 80 79 79 79 79 79 79
81 81 80 80 80 80 80 80 80 80 81 82 82 81 81 81 81 81 82 81 82 82 82 83 82 74 67 64 64 64 64 67 80 81 81 80 80 80 80 80 79 79
81 81 80 80 80 80 80 80 80 80 80 82 82 82 81 81 81 81 81 82 83 83 83 82 83 72 65 63 62 62 63 64 78 81 81 81 81 81 80 80 80 80
82 81 81 81 80 80 80 80 80 80 80 81 82 83 83 83 82 82 82 82 82 83 83 82 84 70 64 63 61 61 62 69 75 78 80 81 81 80 81 81 81 81
83 82 81 81 81 80 80 80 80 80 81 81 81 82 82 82 82 83 83 83 83 82 82 83 84 73 63 61 60 60 61 72 75 77 78 79 80 81 81 81 81 81
83 83 81 81 81 80 80 81 82 82 82 82 81 81 82 83 83 83 83 83 83 82 83 83 83 76 61 59 58 59 64 74 75 76 77 78 79 80 81 81 81 76
84 83 82 82 81 81 82 81 81 81 82 82 82 83 83 83 83 83 83 83 84 83 79 81 84 77 59 59 57 57 63 74 76 76 76 77 77 78 80 80 81 78
84 83 83 83 82 82 83 82 82 82 82 82 82 83 83 83 83 82 82 82 83 83 83 82 82 82 66 58 57 57 59 73 77 77 76 77 78 78 78 78 79 80
MSLP
1012.68 1013.04 1013.48 1013.76 1013.92 1013.96 1014.08 1014.36 1014.52 1014.84 1015.04 1015.24 1015.52 1015.60 1015.64 1015.56 1015.64 1015.88 1016.00 1016.20 1016.36 1016.52 1016.64 1016.76 1016.92 1017.20 1017.32 1017.44 1017.60 1017.84 1018.04 1018.20 1018.32 1018.36 1018.52 1018.64 1018.84 1018.96 1019.20 1019.16 1019.24 1019.24
1012.32 1012.64 1013.00 1013.36 1013.68 1013.80 1013.92 1013.96 1014.16 1014.40 1014.72 1014.80 1014.88 1015.04 1015.16 1015.36 1015.52 1015.60 1015.88 1016.08 1016.20 1016.36 1016.40 1016.60 1016.76 1016.96 1017.20 1017.40 1017.52 1017.80 1018.00 1018.12 1018.32 1018.16 1018.48 1018.64 1018.68 1018.84 1018.96 1019.00 1019.08 1019.08
1012.00 1012.44 1012.80 1013.20 1013.40 1013.56 1013.64 1013.72 1013.88 1014.04 1014.32 1014.40 1014.52 1014.72 1014.96 1015.04 1015.32 1015.40 1015.60 1015.80 1016.08 1016.20 1016.36 1016.44 1016.64 1016.80 1017.00 1017.16 1017.36 1017.60 1017.88 1018.04 1018.20 1018.12 1018.28 1018.52 1018.56 1018.80 1018.76 1018.84 1019.00 1019.12
1011.64 1011.88 1012.28 1012.56 1012.80 1013.12 1013.28 1013.64 1013.76 1013.84 1013.96 1014.36 1014.44 1014.40 1014.56 1014.76 1015.00 1015.28 1015.44 1015.60 1015.88 1016.08 1016.20 1016.32 1016.48 1016.60 1016.80 1016.96 1017.20 1017.48 1017.56 1017.72 1017.72 1017.88 1018.20 1018.32 1018.44 1018.52 1018.68 1018.76 1018.84 1019.00
1011.24 1011.60 1011.84 1012.16 1012.40 1012.68 1013.04 1013.40 1013.56 1013.60 1013.76 1013.80 1014.04 1014.24 1014.48 1014.68 1014.92 1015.12 1015.32 1015.52 1015.64 1015.88 1016.04 1016.20 1016.28 1016.44 1016.52 1016.80 1017.00 1017.36 1017.44 1017.60 1017.64 1017.80 1018.08 1018.32 1018.32 1018.44 1018.48 1018.68 1018.88 1018.96
1011.00 1011.20 1011.48 1011.84 1012.12 1012.48 1012.84 1013.04 1013.16 1013.36 1013.48 1013.76 1013.84 1013.96 1014.16 1014.32 1014.60 1014.84 1015.04 1015.28 1015.40 1015.56 1015.80 1015.92 1016.16 1016.24 1016.36 1016.60 1016.84 1017.04 1017.24 1017.52 1017.52 1017.68 1018.00 1018.16 1018.24 1018.24 1018.32 1018.48 1018.72 1018.88
1010.76 1011.00 1011.32 1011.56 1011.96 1012.20 1012.56 1012.72 1012.88 1013.00 1013.16 1013.20 1013.48 1013.84 1013.84 1014.16 1014.32 1014.44 1014.64 1014.80 1015.04 1015.28 1015.48 1015.72 1015.92 1016.12 1016.12 1016.36 1016.68 1016.88 1017.00 1017.12 1017.28 1017.56 1017.84 1017.92 1018.04 1018.20 1018.12 1018.28 1018.44 1018.60
1010.28 1010.48 1010.84 1011.24 1011.64 1011.92 1012.24 1012.40 1012.56 1012.72 1012.72 1013.00 1013.32 1013.28 1013.44 1013.72 1013.88 1014.00 1014.16 1014.40 1014.72 1014.96 1015.12 1015.32 1015.52 1015.72 1015.88 1016.12 1016.52 1016.72 1016.88 1016.88 1017.12 1017.32 1017.56 1017.72 1017.80 1018.04 1018.04 1017.96 1018.12 1018.32
1009.84 1010.28 1010.60 1010.96 1011.36 1011.64 1011.92 1012.04 1012.16 1012.28 1012.36 1012.72 1012.84 1012.96 1013.04 1013.24 1013.48 1013.64 1013.84 1014.08 1014.36 1014.56 1014.80 1015.00 1015.16 1015.40 1015.56 1015.84 1016.12 1016.36 1016.56 1016.68 1016.68 1016.92 1017.16 1017.40 1017.60 1017.60 1017.64 1017.68 1017.96 1018.04
1009.76 1009.96 1010.36 1010.68 1011.08 1011.24 1011.52 1011.64 1011.80 1011.96 1012.08 1012.36 1012.44 1012.56 1012.84 1012.88 1013.00 1013.28 1013.52 1013.84 1014.08 1014.28 1014.52 1014.68 1014.88 1015.08 1015.28 1015.40 1015.60 1015.80 1016.08 1016.24 1016.32 1016.48 1016.64 1016.76 1016.92 1017.08 1017.20 1017.40 1017.48 1017.68
1009.44 1009.72 1010.08 1010.36 1010.64 1010.84 1011.16 1011.36 1011.56 1011.72 1011.88 1012.08 1012.20 1012.40 1012.44 1012.64 1012.84 1012.92 1013.28 1013.56 1013.84 1013.96 1014.16 1014.32 1014.40 1014.60 1014.88 1015.04 1015.12 1015.20 1015.40 1015.64 1015.84 1016.04 1016.20 1016.28 1016.32 1016.44 1016.60 1016.80 1016.96 1017.04
1009.00 1009.32 1009.60 1009.84 1010.16 1010.48 1010.76 1011.00 1011.20 1011.44 1011.64 1011.76 1011.84 1012.12 1012.16 1012.24 1012.52 1012.72 1012.88 1013.16 1013.24 1013.36 1013.52 1013.72 1013.88 1014.12 1014.36 1014.52 1014.64 1014.76 1015.00 1015.16 1015.36 1015.56 1015.68 1015.84 1015.88 1015.96 1016.04 1016.16 1016.36 1016.40
1008.48 1008.64 1008.84 1009.24 1009.60 1009.96 1010.24 1010.56 1010.80 1010.96 1011.24 1011.44 1011.44 1011.64 1011.88 1012.08 1012.12 1012.36 1012.40 1012.60 1012.76 1012.88 1013.12 1013.28 1013.48 1013.68 1013.88 1014.08 1014.24 1014.44 1014.68 1014.92 1015.08 1015.16 1015.28 1015.36 1015.40 1015.44 1015.48 1015.56 1015.68 1015.80
1007.80 1008.00 1008.40 1008.72 1009.04 1009.48 1009.80 1010.04 1010.28 1010.56 1010.76 1010.88 1011.08 1011.40 1011.56 1011.64 1011.80 1011.96 1011.96 1012.12 1012.32 1012.48 1012.52 1012.72 1013.08 1013.40 1013.52 1013.68 1013.84 1014.00 1014.24 1014.48 1014.60 1014.76 1014.88 1014.92 1014.96 1015.00 1015.04 1015.16 1015.20 1015.32
1007.40 1007.72 1007.96 1008.36 1008.76 1009.16 1009.48 1009.72 1009.92 1010.12 1010.32 1010.52 1010.72 1010.88 1010.96 1011.04 1011.16 1011.40 1011.76 1012.00 1012.04 1012.12 1012.28 1012.44 1012.80 1013.00 1013.00 1013.16 1013.44 1013.60 1013.68 1013.92 1014.08 1014.24 1014.44 1014.60 1014.64 1014.68 1014.72 1014.80 1014.88 1014.92
1007.04 1007.36 1007.68 1008.00 1008.48 1008.80 1009.04 1009.32 1009.60 1009.80 1010.00 1010.20 1010.28 1010.36 1010.48 1010.64 1010.84 1011.00 1011.32 1011.60 1011.80 1011.88 1012.00 1012.24 1012.36 1012.32 1012.28 1012.44 1012.60 1012.88 1013.16 1013.32 1013.56 1013.80 1014.00 1014.20 1014.40 1014.52 1014.52 1014.52 1014.48 1014.44
1006.64 1006.96 1007.28 1007.72 1007.88 1008.24 1008.56 1008.88 1009.16 1009.36 1009.64 1009.80 1009.92 1010.00 1010.16 1010.28 1010.52 1010.80 1010.92 1011.04 1011.28 1011.52 1011.76 1011.84 1011.80 1011.68 1011.68 1012.00 1012.20 1012.32 1012.56 1012.92 1013.24 1013.40 1013.56 1013.84 1014.04 1014.24 1014.40 1014.24 1014.12 1014.00
1006.12 1006.48 1006.92 1007.16 1007.48 1007.76 1007.96 1008.24 1008.68 1009.04 1009.28 1009.40 1009.56 1009.80 1009.80 1009.92 1010.24 1010.32 1010.44 1010.60 1010.76 1010.96 1011.20 1011.24 1011.24 1011.04 1011.28 1011.56 1011.80 1012.00 1012.20 1012.40 1012.72 1013.04 1013.24 1013.48 1013.64 1013.80 1013.80 1013.84 1013.84 1013.80
1005.64 1006.12 1006.48 1006.84 1007.04 1007.28 1007.64 1008.08 1008.48 1008.72 1008.92 1009.12 1009.24 1009.20 1009.48 1009.80 1009.76 1009.92 1010.12 1010.12 1010.32 1010.56 1010.68 1010.60 1010.60 1010.48 1010.84 1011.12 1011.40 1011.64 1011.96 1012.20 1012.32 1012.56 1012.84 1013.00 1013.12 1013.24 1013.32 1013.40 1013.44 1013.52
1005.08 1005.56 1006.00 1006.24 1006.56 1007.00 1007.40 1007.80 1008.12 1008.28 1008.28 1008.48 1008.80 1009.08 1009.36 1009.40 1009.44 1009.60 1009.64 1009.84 1009.88 1010.00 1010.04 1009.96 1010.04 1009.96 1010.40 1010.68 1011.00 1011.28 1011.56 1012.04 1012.00 1012.12 1012.32 1012.48 1012.56 1012.64 1012.76 1012.84 1012.88 1013.04
1004.64 1005.08 1005.52 1005.84 1006.16 1006.56 1006.96 1007.32 1007.56 1007.76 1008.08 1008.16 1008.36 1008.64 1008.84 1008.92 1009.00 1009.20 1009.20 1009.24 1009.36 1009.36 1009.52 1009.68 1009.48 1009.44 1009.92 1010.20 1010.56 1010.88 1011.20 1011.76 1011.76 1011.80 1011.96 1012.04 1012.00 1012.04 1012.12 1012.16 1012.20 1012.32
1004.16 1004.68 1005.08 1005.40 1005.76 1006.12 1006.52 1006.80 1006.96 1007.20 1007.48 1007.56 1007.88 1008.04 1008.08 1008.24 1008.48 1008.60 1008.80 1008.92 1008.88 1009.04 1009.20 1009.28 1008.84 1008.96 1009.40 1009.76 1010.12 1010.52 1011.00 1011.60 1011.60 1011.68 1011.72 1011.64 1011.64 1011.60 1011.60 1011.56 1011.60 1011.72
1003.56 1004.12 1004.60 1004.96 1005.28 1005.72 1006.04 1006.24 1006.48 1006.72 1006.88 1007.08 1007.60 1007.64 1007.80 1007.92 1007.92 1007.92 1007.88 1008.20 1008.44 1008.64 1008.84 1008.76 1008.52 1008.56 1009.00 1009.40 1009.84 1010.24 1011.04 1011.28 1011.32 1011.44 1011.48 1011.44 1011.28 1011.12 1011.08 1011.08 1011.08 1011.08
1002.96 1003.44 1004.00 1004.40 1004.76 1005.16 1005.44 1005.60 1005.72 1005.96 1006.36 1006.48 1007.00 1007.24 1007.40 1007.20 1007.20 1007.52 1007.60 1007.68 1007.92 1008.16 1008.12 1008.40 1008.28 1008.24 1008.80 1009.24 1009.64 1010.04 1010.36 1010.68 1010.92 1011.16 1011.16 1011.08 1010.96 1010.76 1010.64 1010.56 1010.44 1010.52
1002.28 1002.72 1003.20 1003.68 1004.12 1004.40 1004.64 1005.04 1005.28 1005.48 1005.64 1006.00 1006.28 1006.52 1006.72 1006.76 1007.08 1007.36 1007.40 1007.36 1007.36 1007.48 1007.64 1008.04 1008.12 1008.28 1008.52 1008.92 1009.28 1009.68 1010.12 1010.28 1010.44 1010.68 1010.88 1010.84 1010.88 1010.68 1010.32 1010.20 1010.12 1010.16
1001.60 1002.16 1002.52 1002.96 1003.44 1003.76 1003.96 1004.24 1004.48 1004.96 1005.32 1005.56 1005.76 1005.96 1006.28 1006.44 1006.68 1006.92 1007.16 1007.12 1007.04 1007.24 1007.48 1007.64 1008.00 1008.12 1008.28 1008.48 1008.76 1009.16 1009.48 1009.68 1009.80 1010.28 1010.52 1010.52 1010.44 1010.36 1010.32 1010.04 1009.92 1009.92
Wind_Speed
12 11 11 10 9 9 10 10 9 9 8 8 9 9 10 9 8 9 9 8 8 8 8 8 6 6 6 6 5 5 6 7 6 5 6 6 5 5 6 4 4 5
14 13 10 9 8 6 7 9 9 10 9 9 9 8 8 8 8 9 9 9 9 9 8 8 7 7 7 6 6 6 6 6 7 4 6 6 6 6 6 5 5 4
14 13 12 12 11 11 11 9 9 9 9 9 8 8 8 8 9 8 9 9 9 9 9 8 7 7 7 6 6 7 7 7 7 6 6 7 6 6 6 5 4 5
15 15 14 14 12 12 10 9 9 9 8 7 9 9 8 8 9 10 9 9 9 9 9 8 9 8 8 7 7 7 7 7 7 7 7 5 6 7 6 5 5 4
15 14 13 12 11 11 10 10 11 11 11 10 7 7 8 8 9 9 9 9 9 9 9 9 9 9 8 8 8 7 7 7 6 7 7 7 6 6 6 6 6 6
12 12 12 12 12 11 11 12 11 11 11 10 10 7 8 9 10 10 10 10 10 10 10 10 9 9 9 9 8 8 7 7 7 7 8 8 7 6 5 6 6 7
14 13 14 12 12 11 11 11 10 10 10 11 8 8 9 10 11 12 12 11 11 10 11 10 10 10 9 8 8 9 8 8 7 8 9 8 7 7 6 6 8 8
16 14 13 12 13 13 13 12 11 11 11 10 11 11 10 11 12 11 11 12 11 11 11 11 11 11 10 9 9 9 9 7 8 9 9 9 7 8 8 7 8 9
14 14 13 14 15 13 14 13 12 11 10 11 12 11 10 11 11 11 12 12 11 11 11 11 11 11 10 10 10 11 11 10 10 10 11 11 10 11 10 9 8 9
13 13 14 14 15 13 15 14 13 12 11 12 12 11 12 11 11 12 11 11 12 11 11 11 11 11 11 11 12 12 12 12 11 11 11 11 12 11 11 10 11 10
15 14 14 15 15 13 14 14 13 12 11 12 11 12 12 11 11 10 11 11 12 12 12 12 13 13 12 12 12 12 13 12 12 11 11 12 12 12 11 12 12 13
16 15 16 17 16 14 15 14 13 13 12 11 11 12 12 12 12 11 11 13 13 13 13 13 12 12 13 14 14 13 12 12 12 12 12 12 12 12 12 12 12 13
17 17 16 16 16 15 14 13 14 14 14 13 12 13 13 12 13 13 12 13 14 13 13 13 13 13 13 13 13 12 12 12 12 12 12 12 12 13 13 12 13 12
17 16 15 15 14 14 14 14 14 14 14 13 12 13 13 13 14 14 13 12 13 13 13 12 12 12 12 12 12 13 12 13 13 13 13 13 12 12 12 12 13 13
14 13 13 13 14 14 14 15 14 14 14 13 13 13 12 13 13 13 13 13 12 12 13 11 11 12 11 12 13 14 13 14 14 14 14 13 13 12 12 12 12 12
14 13 13 13 14 15 15 15 14 14 14 14 15 15 14 13 13 13 13 13 13 13 12 11 11 10 14 20 17 14 14 13 12 13 13 13 13 12 12 12 13 12
14 14 14 15 15 15 14 15 16 14 14 14 14 14 15 14 13 14 13 13 14 14 13 12 11 12 19 18 20 21 15 13 13 12 12 12 12 12 12 13 12 13
14 14 15 15 15 16 16 15 15 14 14 14 14 14 14 13 14 15 14 13 13 13 14 13 13 16 19 19 20 21 18 14 12 11 10 11 11 12 12 11 12 12
14 14 15 14 15 15 14 13 14 15 15 15 15 14 12 13 15 14 14 14 13 14 14 15 14 18 19 19 19 20 21 17 11 11 11 11 11 12 12 12 11 11
15 15 15 15 14 14 13 14 14 16 15 14 12 11 13 14 14 15 14 14 14 14 15 14 15 16 19 20 19 20 20 17 13 13 12 12 12 12 12 13 13 12
15 15 15 15 15 14 14 15 16 15 14 14 13 13 14 15 15 15 15 15 15 15 14 13 13 18 18 20 20 20 20 17 13 12 11 12 12 12 13 13 13 13
15 15 15 14 14 15 15 16 16 16 16 14 13 12 12 12 12 12 14 14 15 15 15 15 15 18 19 19 21 20 19 12 12 13 13 13 12 12 13 12 12 13
15 15 15 15 15 15 16 16 16 15 14 12 13 13 13 13 14 14 14 14 14 14 15 16 15 15 18 19 19 19 14 10 11 11 12 13 13 13 12 12 12 13
15 16 16 15 15 16 16 15 15 13 13 12 14 14 14 15 14 12 12 13 14 15 15 15 15 12 15 16 18 18 17 13 11 11 13 13 13 12 11 12 13 18
15 16 16 16 16 16 15 15 15 14 13 11 12 12 13 11 10 10 11 11 12 14 15 15 12 9 13 16 18 18 16 11 11 11 12 12 11 12 12 12 12 12
14 16 16 16 16 15 14 14 12 11 12 13 12 11 12 11 10 10 12 11 10 10 10 11 11 7 10 17 19 20 21 14 11 11 12 12 11 12 12 11 11 11
Wind_Direction
189 190 193 195 197 196 192 189 188 188 189 184 189 194 195 198 188 189 190 189 192 194 197 196 187 186 194 192 186 182 183 186 186 183 183 178 186 180 196 197 183 182
189 190 191 194 197 196 197 196 191 189 188 191 194 192 195 186 195 188 188 189 190 196 196 197 194 188 188 191 189 185 189 186 191 186 182 189 196 187 199 197 188 197
187 189 190 192 197 198 196 196 194 195 191 194 192 192 189 190 191 192 190 187 190 193 194 197 196 194 192 192 188 190 190 192 196 190 186 195 193 196 208 193 191 187
189 190 192 196 197 199 197 192 200 199 196 189 196 194 188 189 191 192 191 189 189 191 193 195 199 198 196 193 186 196 197 197 198 185 192 197 197 198 204 198 202 199
190 190 194 196 198 198 195 199 201 201 201 200 193 189 187 187 189 193 191 192 191 193 192 196 199 202 199 196 189 194 199 201 197 190 194 200 202 195 203 190 204 211
192 193 193 194 195 194 198 202 203 202 202 198 197 185 191 189 189 192 193 193 194 193 194 196 198 203 200 200 195 199 196 199 199 193 200 205 205 203 198 196 200 210
192 192 194 194 195 198 202 204 203 202 202 203 188 192 188 190 191 193 194 196 194 195 195 196 198 200 200 199 200 204 201 201 196 194 203 210 203 206 207 198 204 209
193 192 193 193 196 198 202 203 202 201 200 195 198 200 190 192 194 194 194 195 196 197 198 198 199 200 198 195 201 205 206 201 201 197 203 209 203 210 208 207 204 211
191 192 191 195 198 200 204 205 204 203 197 198 202 202 198 197 196 195 195 195 197 198 199 200 200 201 199 197 201 204 205 205 203 202 204 205 205 211 209 205 207 213
192 193 193 196 200 202 206 207 205 205 200 202 204 202 201 204 201 200 197 198 201 201 200 202 201 202 200 201 203 203 206 208 206 206 208 210 210 210 208 204 209 213
194 193 196 198 202 203 207 207 208 208 205 206 204 204 204 203 206 202 202 201 204 205 203 203 203 202 202 204 206 206 207 208 209 209 211 213 215 213 207 208 210 214
194 193 196 199 201 203 205 205 207 209 208 209 206 207 205 205 203 202 203 205 207 208 206 206 205 203 203 205 206 207 208 211 211 211 212 214 217 217 213 210 214 217
195 197 197 197 199 201 202 204 206 208 208 210 207 209 207 206 206 204 205 206 209 207 208 207 206 204 205 207 208 207 208 210 213 214 215 215 218 218 217 216 217 220
198 197 196 197 198 199 202 204 206 207 208 210 208 210 210 208 207 207 208 207 209 209 211 207 206 207 208 208 208 208 208 210 212 214 217 218 219 220 220 220 219 221
196 195 196 196 197 199 203 205 206 207 207 207 208 210 212 212 211 209 209 211 212 211 212 208 206 208 208 208 208 210 209 212 211 214 215 219 222 222 221 221 223 223
194 194 194 194 196 200 203 205 207 207 207 208 209 210 211 211 212 211 210 210 213 215 213 210 210 211 212 208 206 207 210 213 214 215 216 218 222 225 227 224 224 224
192 195 192 195 198 200 202 204 206 207 208 210 210 209 210 210 210 212 211 211 212 214 214 212 214 216 213 207 209 209 208 211 214 217 216 219 221 223 227 228 229 227
195 194 195 198 197 201 202 203 204 206 210 211 210 210 210 209 211 213 212 212 213 215 216 215 217 218 213 209 209 210 209 211 214 220 219 219 221 223 227 230 232 232
194 195 197 198 201 202 203 202 204 209 211 211 212 211 208 210 214 212 213 213 214 215 217 218 220 216 212 209 209 209 210 211 216 216 220 223 221 223 227 228 231 234
194 195 197 200 199 200 200 202 205 211 212 212 213 210 212 215 215 215 214 213 215 217 219 220 221 218 208 208 208 209 209 206 220 217 219 224 224 224 226 228 229 231
194 195 197 198 197 197 199 203 207 211 210 211 209 210 212 214 214 214 215 214 215 218 223 223 225 217 206 207 207 207 208 202 219 221 224 225 226 227 228 228 230 230
192 194 197 197 196 197 199 204 206 206 208 207 208 212 216 217 220 220 219 217 216 217 221 227 228 214 206 205 205 207 202 203 216 223 226 229 229 228 230 232 232 232
191 192 194 196 195 197 201 204 206 207 208 202 208 212 213 214 217 216 218 217 216 215 219 226 232 215 203 204 203 203 192 210 215 222 228 232 234 232 232 233 233 231
191 191 193 194 195 198 202 205 206 206 206 199 207 211 215 217 217 219 220 219 218 218 217 222 229 219 196 200 199 196 193 204 213 218 228 231 236 238 237 237 235 232
190 192 193 194 196 199 201 203 203 204 202 198 208 211 219 220 218 221 223 223 223 223 220 222 229 214 185 191 196 195 196 209 211 221 228 231 234 239 239 241 243 238
190 191 193 194 196 199 200 202 201 200 200 200 205 208 214 216 216 219 223 225 224 225 223 220 222 215 184 191 192 195 194 201 211 218 228 230 232 237 240 241 242 245